Flag for Germany Weather past 2 weeks in Neuburg an der Donau, Bavaria, Germany

Now
30 °F

Chilly.


Feels Like: 22 °F
Forecast: 12 / 31 °F
Wind: 9 mph from East

Location: Neuburg / Donau

Current Time: Dec 27, 2014 at 12:41:20 PM

Latest Report: Dec 27, 2014 at 11:20 AM


Visibility: N/A

Pressure: 29.62 "Hg

Humidity: 86%

Dew point: 27 °F

Location of Neuburg an der DonauLocation

Historic Weather in Neuburg an der Donau — Graph

°F

Neuburg an der Donau temperature yesterday

Maximum temperature yesterday: 36 °F (at 12:20 AM)
Minimum temperature yesterday: 28 °F (at 9:20 PM)
Average temperature yesterday: 33 °F

Past Weeks' High & Low Weather Summary

 TemperatureHumidityPressure
High54 °F (Dec 19, 12:20 AM)100% (Dec 14, 7:20 PM)30.48 "Hg (Dec 14, 7:20 PM)
Low28 °F (Dec 26, 9:20 PM)51% (Dec 23, 2:20 PM)29.62 "Hg (Dec 27, 11:20 AM)
Average41 °F84%30.09 "Hg
* Reported Dec 12 11:20 AM — Dec 27 11:20 AM, Neuburg an der Donau, Weather by CustomWeather, © 2014

Note: Actual official high and low records may vary slightly from our data, if they occured in-between our weather recording intervals... More about our weather records

Advertising

Neuburg an der Donau weather history for previous 24 hours

 ConditionsComfort  
Time TempWeatherWind HumidityBarometerVisibility
11:20 AM
Dec 27
30 °FChilly.9 mph86%29.62 "HgN/A
10:20 AM30 °FChilly.9 mph86%29.68 "HgN/A
9:20 AM30 °FChilly.6 mph86%29.71 "HgN/A
8:20 AM28 °FChilly.5 mph93%29.77 "HgN/A
7:20 AM28 °FChilly.7 mph100%29.83 "HgN/A
6:20 AM28 °FChilly.6 mph93%29.89 "HgN/A
5:20 AM28 °FChilly.5 mph100%29.95 "HgN/A
4:20 AM30 °FChilly.5 mph93%30.01 "HgN/A
3:20 AM30 °FChilly.3 mph93%30.09 "HgN/A
2:20 AM30 °FChilly.2 mph100%30.12 "HgN/A
1:20 AM28 °FChilly.1 mph100%30.15 "HgN/A
12:20 AM28 °FChilly.1 mph100%30.18 "HgN/A
11:20 PM
Dec 26
28 °FChilly.No wind93%30.24 "HgN/A
10:20 PM28 °FChilly.2 mph100%30.27 "HgN/A
9:20 PM28 °FChilly.5 mph100%30.27 "HgN/A
8:20 PM30 °FChilly.6 mph93%30.27 "HgN/A
7:20 PM32 °FChilly.2 mph93%30.30 "HgN/A
6:20 PM32 °FChilly.3 mph93%30.30 "HgN/A
5:20 PM32 °FChilly.6 mph100%30.30 "HgN/A
4:20 PM32 °FChilly.7 mph100%30.33 "HgN/A
3:20 PM36 °FChilly.3 mph87%30.30 "HgN/A
2:20 PM36 °FChilly.6 mph81%30.33 "HgN/A
1:20 PM36 °FChilly.9 mph81%30.33 "HgN/A
12:20 PM36 °FChilly.6 mph81%30.33 "HgN/A
Weather by CustomWeather, © 2014

See weather overviewHow to use our weather pages